JCSAT-18 (KACIFIC 1)

Last updated on Tue Sep 22 2026 00:03:15 GMT+0000 (Coordinated Universal Time)

1 44868U 19091A 26264.53693626 -.00000204 00000+0 00000+0 0 9995 2 44868 0.0482 329.2756 0000138 213.2239 161.2406 1.00271841 24970
UTC large
Height (km)
Speed (km/s)
/
Latitude / Longitude
Inclination (degrees)
Orbital Period (minutes)
Azimuth
Elevation
Range (km)
Doppler Factor

Next 0 passes for location: London (51.5072 / 0.1276)

No passes found over London.
JCSAT-18 (KACIFIC 1)